Wind_Speed
35 35 34 34 33 31 31 31 32 30 30 31 31 29 27 23 21 19 18 18 18 19 19 18 19 20 21 23 22 21 20 18 18 18 17 17 16 16 16 16 16 16 15
38 38 38 38 37 35 33 32 32 32 32 31 30 30 30 29 25 22 22 20 20 21 21 21 20 20 21 23 24 24 24 23 21 20 19 19 18 17 17 17 16 16 16
40 41 41 42 42 40 39 36 34 33 33 34 33 32 32 33 31 29 27 24 23 24 25 25 24 23 23 24 25 25 25 25 24 22 21 20 19 19 18 18 18 18 17
43 45 46 47 49 48 46 42 38 36 36 37 38 37 35 35 36 35 32 30 28 27 28 29 29 29 28 27 27 27 26 26 26 24 21 20 20 20 20 21 21 21 20
47 48 49 52 54 54 53 50 46 43 41 42 43 42 39 38 38 39 38 36 33 31 32 32 33 33 32 31 30 28 28 27 26 26 24 22 21 21 23 23 24 24 24
49 50 52 54 56 57 58 58 54 49 47 47 48 47 45 43 42 42 41 40 38 35 34 34 35 34 32 33 33 31 29 29 28 28 28 26 25 24 25 27 27 28 28
50 51 53 54 55 57 59 60 58 54 52 53 52 51 49 47 46 46 43 42 41 38 34 33 34 34 33 32 34 34 31 31 31 31 31 30 29 29 29 31 31 31 31
49 50 51 53 54 53 54 55 57 56 56 57 58 57 54 50 50 48 45 42 41 37 33 32 34 36 36 33 33 34 33 33 33 34 34 34 34 33 33 32 32 31 31
50 51 51 51 51 51 50 51 54 54 56 57 57 56 55 52 50 49 46 41 39 35 33 34 37 37 37 35 32 31 32 34 34 34 35 36 37 37 36 33 31 31 30
52 53 52 51 50 49 49 50 51 52 51 50 48 48 48 46 46 46 43 40 37 34 34 37 39 37 34 32 31 31 30 32 33 33 35 37 38 38 38 36 34 33 33
50 52 53 52 51 50 49 48 48 48 47 42 40 41 43 44 44 43 41 38 37 37 37 38 39 36 32 30 29 30 29 29 31 34 36 37 38 38 38 37 36 35 35
49 50 53 54 54 53 51 49 48 46 43 39 36 38 41 44 44 43 41 38 39 41 42 39 36 33 32 30 28 27 27 28 30 33 35 35 36 38 39 39 38 38 37
50 50 51 53 54 54 52 49 47 45 42 38 36 37 40 42 45 45 44 44 44 41 38 36 33 32 31 30 29 28 27 28 29 32 34 34 35 38 40 41 42 40 39
49 49 48 49 48 49 49 48 45 43 41 39 40 40 42 46 48 48 47 45 39 35 34 34 33 32 32 32 32 32 31 29 30 32 34 35 36 37 40 41 40 38 38
49 48 46 45 43 42 41 40 38 36 35 37 40 42 45 48 49 46 42 37 33 32 33 34 34 34 35 35 34 33 33 31 31 30 30 32 35 37 38 39 40 39 39
45 42 39 37 35 33 32 30 29 29 31 33 34 36 40 41 39 36 32 31 31 31 32 33 33 34 36 36 34 34 32 31 30 29 28 30 32 36 38 39 41 42 43
37 34 32 30 28 27 27 28 27 27 27 26 26 26 27 27 27 27 28 29 31 31 32 33 33 34 36 36 35 36 35 34 34 32 30 30 33 35 37 40 42 43 44
29 26 26 26 26 26 26 26 24 22 22 22 21 20 21 22 24 25 27 28 30 31 32 33 34 35 36 37 38 39 39 39 39 36 33 33 34 35 36 39 41 42 42
22 22 23 24 25 24 22 21 21 21 21 22 23 23 24 25 26 27 28 28 29 30 31 32 33 33 34 35 35 37 38 38 37 35 36 36 36 36 37 38 40 41 42
18 20 21 22 22 22 21 21 21 22 22 22 22 22 24 25 25 26 26 27 27 28 29 30 31 31 33 33 34 35 36 36 35 34 36 38 38 38 37 36 35 37 39
15 18 21 22 20 20 21 23 24 23 22 22 21 21 21 22 22 23 23 24 25 27 28 29 30 31 33 34 35 36 36 35 34 34 35 37 38 38 37 35 34 34 33
10 12 16 18 18 19 21 22 22 22 22 21 20 20 19 19 19 20 21 23 25 27 28 29 31 33 34 36 37 37 36 35 34 35 36 36 37 38 38 35 34 31 30
9 7 8 11 13 15 17 18 19 19 18 18 17 17 17 17 18 20 21 23 25 27 28 30 32 33 34 35 36 37 37 37 37 37 37 36 37 37 36 34 34 32 28
9 9 9 10 12 14 16 17 17 17 16 16 16 16 16 17 17 19 20 22 24 25 25 27 28 29 31 32 34 35 36 36 37 38 38 37 38 37 36 34 33 34 29
12 13 12 12 12 14 14 15 16 15 14 14 14 14 14 15 16 17 18 18 18 19 21 23 25 28 31 34 36 38 38 37 36 35 34 35 35 36 36 35 33 33 33
16 17 17 16 15 14 14 14 14 14 14 13 12 13 14 15 14 13 12 14 16 19 22 24 27 30 34 36 39 40 39 39 38 36 34 33 33 33 32 32 31 30 31
Wind_Direction
309 308 304 301 303 305 302 297 292 289 288 283 279 276 269 269 272 279 288 296 303 303 298 295 291 284 277 273 272 272 274 280 284 284 281 280 281 280 281 286 289 289 288
299 298 297 296 297 298 298 295 292 289 288 288 285 281 273 270 271 270 275 283 292 296 295 291 288 286 282 278 275 274 274 275 278 281 282 279 279 279 277 279 282 284 282
290 290 290 291 291 292 291 292 294 291 285 283 283 282 277 273 273 271 270 275 282 287 288 287 285 282 280 278 275 274 274 275 275 278 280 279 278 279 277 275 277 278 279
287 286 286 287 287 288 288 289 292 291 287 283 281 280 277 273 272 272 270 271 276 281 283 283 282 281 278 277 274 272 273 273 273 274 274 273 274 276 277 276 275 275 276
285 283 282 283 283 283 284 285 287 287 284 282 281 279 278 274 270 269 269 269 272 276 278 280 280 280 279 278 275 272 271 269 268 270 271 270 271 275 277 280 280 278 277
281 279 278 279 279 279 278 279 282 284 283 282 281 279 276 275 270 266 266 268 272 274 276 279 281 281 278 277 274 272 269 265 262 263 266 268 271 275 279 281 282 282 280
279 278 279 280 280 276 275 275 277 280 280 280 281 280 276 273 271 265 263 266 271 274 274 279 282 280 276 273 272 271 267 264 260 258 260 262 265 271 278 280 280 280 280
277 278 279 281 282 278 275 276 277 278 278 279 280 280 278 275 270 266 263 263 268 271 274 280 283 281 279 273 269 269 267 265 262 260 261 262 264 269 276 277 278 278 276
278 278 278 279 281 279 277 276 277 277 278 279 279 278 277 274 267 263 261 261 263 265 275 285 287 282 279 275 271 268 267 265 264 264 265 266 266 269 272 273 275 278 274
277 277 277 278 278 278 277 276 275 275 278 280 278 274 272 270 264 256 258 261 260 263 276 286 286 282 279 275 272 269 269 269 268 267 268 269 269 269 269 270 273 277 275
276 276 276 276 275 275 275 274 274 274 275 276 272 265 263 262 259 254 253 257 259 266 276 282 279 277 277 276 273 271 271 271 271 271 271 271 270 269 268 269 270 274 275
276 276 274 273 272 272 273 272 272 272 270 267 264 260 256 254 254 254 252 250 257 269 276 276 272 271 273 274 274 272 270 271 273 274 274 275 273 271 268 268 269 271 273
280 278 275 272 270 269 269 269 269 269 266 262 258 256 253 252 252 254 254 252 258 267 271 269 267 268 270 272 275 276 276 277 276 275 276 277 276 273 270 270 269 268 267
283 280 274 270 268 267 265 264 265 265 263 257 255 254 252 252 252 255 254 255 258 262 265 265 265 267 269 273 276 279 279 278 279 277 276 277 278 278 274 273 270 265 262
284 279 271 268 265 262 260 260 261 259 256 253 251 250 250 251 252 252 251 253 256 260 262 263 265 268 271 275 279 279 280 282 283 282 281 282 281 279 276 273 267 263 261
282 275 269 264 259 255 253 253 250 248 247 246 244 244 246 248 249 247 246 250 256 261 263 264 265 267 269 273 277 278 279 282 285 287 288 291 290 284 277 272 268 264 262
278 271 262 255 246 243 243 241 238 238 241 243 246 248 251 253 252 250 250 255 260 264 266 267 269 270 271 273 275 275 277 282 286 288 290 293 294 290 282 274 269 264 262
271 263 253 241 235 236 237 238 239 243 248 252 256 260 263 268 269 266 264 264 266 268 271 273 275 276 276 277 278 279 281 283 286 287 289 290 291 293 286 276 269 264 258
264 256 244 233 230 232 234 237 241 246 252 256 258 258 260 263 265 267 267 267 270 273 276 277 279 280 280 281 282 282 283 284 285 288 288 287 287 290 290 282 273 263 255
264 250 240 236 234 234 234 239 245 250 255 258 258 257 256 257 261 264 267 271 274 276 277 278 280 282 282 282 281 281 282 283 285 286 285 283 282 283 289 286 276 264 256
267 249 240 236 240 242 242 244 247 251 253 254 253 253 255 258 262 266 271 275 276 276 277 279 281 282 281 281 281 282 283 285 285 284 282 279 277 278 282 284 277 266 258
282 256 241 238 240 242 241 238 240 244 247 249 251 254 258 263 267 271 274 275 277 279 281 281 281 281 282 282 283 283 284 284 283 281 279 278 276 275 278 282 281 268 258
292 275 254 245 241 239 237 235 236 241 246 250 253 256 258 261 266 270 273 277 281 283 284 284 284 285 286 286 286 285 284 283 281 279 278 278 277 276 278 280 280 272 264
276 278 269 258 250 243 241 239 238 239 241 244 246 250 256 261 265 270 276 281 284 285 287 289 291 293 294 294 293 292 289 287 284 281 279 278 276 276 277 278 278 273 274
268 271 268 263 256 250 243 239 237 236 239 246 255 262 266 270 274 281 286 289 292 294 297 299 301 302 302 301 299 296 293 290 287 284 281 279 277 276 275 275 275 273 273
266 269 269 267 265 263 256 247 241 244 251 256 262 270 277 282 287 291 294 300 304 307 308 309 309 307 304 300 297 295 292 289 287 284 283 281 279 277 275 274 273 270 268
Height
5899 5899 5899 5897 5896 5895 5894 5893 5892 5892 5891 5890 5890 5890 5890 5889 5888 5887 5886 5885 5884 5883 5882 5881 5881 5880 5881 5881 5882 5882 5881 5880 5880 5880 5879 5879 5878 5878 5878 5877 5878 5878 5878
5893 5892 5892 5891 5890 5889 5888 5886 5885 5885 5885 5885 5884 5884 5885 5885 5885 5884 5882 5881 5880 5880 5879 5878 5877 5876 5876 5876 5877 5877 5877 5877 5876 5876 5876 5875 5875 5875 5874 5874 5873 5873 5874
5885 5883 5883 5883 5882 5881 5880 5879 5878 5878 5878 5878 5878 5878 5879 5880 5881 5880 5878 5877 5876 5875 5875 5874 5873 5872 5871 5870 5870 5871 5872 5872 5872 5872 5872 5871 5871 5871 5871 5871 5870 5870 5869
5876 5874 5873 5873 5873 5873 5873 5872 5871 5871 5870 5870 5870 5870 5871 5872 5874 5873 5872 5871 5870 5870 5869 5868 5868 5867 5866 5865 5864 5864 5865 5866 5867 5867 5867 5866 5866 5866 5866 5867 5867 5866 5866
5866 5865 5864 5863 5862 5862 5863 5863 5863 5862 5862 5861 5860 5861 5863 5864 5864 5865 5865 5864 5864 5863 5863 5863 5862 5862 5861 5859 5858 5858 5859 5860 5860 5861 5861 5861 5860 5860 5861 5861 5862 5862 5862
5856 5855 5854 5853 5852 5851 5851 5852 5852 5852 5852 5851 5850 5851 5852 5854 5855 5856 5857 5857 5856 5856 5855 5855 5855 5855 5855 5853 5852 5851 5851 5853 5853 5854 5854 5855 5855 5855 5856 5856 5857 5857 5857
5844 5843 5842 5841 5840 5839 5839 5839 5839 5839 5839 5839 5837 5838 5840 5843 5844 5845 5848 5849 5848 5848 5848 5848 5847 5848 5848 5846 5845 5844 5844 5845 5846 5846 5847 5848 5849 5849 5850 5850 5850 5851 5851
5833 5831 5830 5829 5827 5826 5827 5827 5827 5826 5826 5825 5824 5824 5825 5830 5832 5833 5837 5840 5840 5840 5840 5840 5839 5839 5839 5839 5838 5837 5837 5837 5838 5839 5840 5841 5842 5843 5843 5843 5843 5843 5843
5821 5820 5819 5818 5816 5815 5815 5816 5816 5814 5814 5813 5811 5810 5811 5815 5818 5822 5825 5829 5831 5832 5832 5831 5831 5830 5829 5829 5829 5829 5829 5829 5830 5831 5832 5833 5834 5835 5836 5836 5836 5835 5835
5810 5809 5808 5807 5806 5804 5804 5804 5804 5804 5803 5801 5799 5798 5800 5802 5806 5811 5815 5818 5821 5823 5823 5822 5821 5821 5821 5821 5820 5821 5821 5821 5822 5823 5824 5825 5826 5826 5827 5828 5828 5828 5827
5798 5797 5796 5796 5795 5794 5793 5792 5792 5793 5792 5791 5790 5790 5791 5794 5797 5802 5807 5809 5811 5813 5814 5814 5813 5813 5813 5813 5812 5813 5814 5813 5814 5814 5815 5816 5816 5817 5818 5818 5819 5819 5820
5786 5785 5783 5783 5782 5782 5782 5782 5782 5782 5782 5782 5782 5782 5783 5786 5789 5792 5797 5800 5802 5802 5804 5806 5806 5806 5806 5805 5805 5806 5806 5806 5806 5806 5806 5806 5807 5807 5808 5809 5810 5811 5811
5772 5771 5769 5769 5769 5770 5770 5771 5771 5771 5772 5773 5774 5774 5776 5777 5780 5783 5787 5791 5794 5794 5795 5796 5797 5797 5798 5798 5798 5798 5798 5799 5799 5798 5798 5798 5798 5798 5799 5799 5800 5801 5802
5758 5756 5755 5754 5755 5757 5758 5759 5760 5761 5762 5763 5765 5766 5767 5768 5771 5774 5777 5781 5785 5786 5786 5787 5788 5789 5790 5790 5790 5790 5790 5790 5791 5790 5790 5789 5789 5789 5789 5789 5789 5790 5791
5743 5742 5742 5742 5743 5745 5746 5748 5750 5751 5752 5754 5756 5757 5758 5759 5762 5764 5768 5772 5776 5777 5777 5778 5779 5781 5781 5781 5781 5781 5781 5782 5782 5780 5779 5779 5778 5778 5779 5779 5779 5779 5780
5729 5728 5729 5731 5732 5734 5737 5740 5742 5743 5745 5746 5747 5748 5749 5751 5753 5756 5760 5763 5766 5768 5769 5770 5771 5772 5772 5773 5773 5773 5773 5773 5772 5771 5768 5767 5767 5767 5767 5767 5768 5768 5769
5717 5718 5719 5721 5724 5727 5730 5733 5736 5737 5738 5739 5739 5741 5743 5745 5748 5751 5753 5756 5759 5760 5761 5762 5763 5763 5764 5764 5765 5765 5765 5764 5763 5760 5757 5757 5756 5755 5755 5755 5755 5756 5757
5709 5709 5711 5714 5717 5720 5724 5727 5729 5730 5732 5733 5734 5736 5739 5742 5744 5746 5748 5751 5752 5753 5754 5755 5755 5755 5755 5755 5755 5755 5754 5754 5753 5749 5746 5746 5747 5745 5744 5743 5743 5743 5745
5702 5704 5705 5708 5712 5715 5718 5721 5723 5725 5727 5728 5729 5732 5735 5737 5739 5741 5743 5745 5746 5746 5747 5747 5747 5747 5747 5746 5745 5744 5744 5744 5741 5738 5736 5736 5737 5736 5734 5732 5731 5731 5733
5697 5699 5701 5704 5707 5710 5713 5716 5719 5720 5722 5723 5724 5726 5728 5731 5733 5735 5736 5737 5738 5739 5739 5740 5740 5739 5738 5737 5736 5735 5734 5732 5730 5728 5726 5726 5726 5726 5724 5722 5720 5720 5721
5694 5695 5697 5700 5702 5705 5708 5711 5714 5715 5717 5718 5720 5721 5723 5725 5726 5727 5729 5730 5731 5731 5732 5732 5732 5731 5730 5728 5727 5725 5723 5721 5719 5718 5717 5716 5716 5715 5714 5713 5712 5711 5710
5691 5692 5693 5695 5698 5700 5703 5706 5708 5710 5712 5714 5716 5717 5718 5719 5720 5721 5722 5723 5723 5723 5723 5723 5723 5722 5720 5718 5716 5714 5713 5711 5710 5709 5708 5706 5705 5705 5704 5704 5704 5702 5702
5691 5690 5691 5692 5694 5696 5699 5701 5703 5706 5708 5710 5711 5712 5713 5713 5714 5716 5716 5716 5715 5715 5715 5714 5713 5711 5710 5707 5705 5704 5702 5700 5699 5698 5697 5696 5696 5695 5694 5693 5694 5694 5693
5690 5690 5690 5691 5692 5694 5696 5698 5699 5701 5703 5705 5706 5707 5708 5708 5709 5710 5710 5710 5710 5709 5708 5706 5705 5703 5700 5698 5695 5693 5692 5689 5687 5686 5685 5685 5685 5685 5684 5684 5684 5685 5685
5688 5688 5689 5689 5690 5691 5692 5694 5696 5697 5699 5701 5702 5703 5703 5704 5705 5705 5705 5705 5704 5703 5701 5699 5697 5694 5691 5688 5685 5682 5680 5679 5677 5676 5675 5674 5674 5673 5673 5674 5674 5676 5677
5685 5685 5685 5685 5686 5687 5688 5690 5692 5694 5695 5697 5698 5698 5699 5699 5700 5700 5700 5700 5699 5697 5695 5692 5689 5686 5683 5679 5675 5672 5669 5667 5665 5664 5664 5664 5663 5663 5663 5664 5664 5666 5668